Temperature
12 11 10 11 12 12 12 12 13 13 13 12 11 12 12 12 12 12 13 13 12 12 11 11 11 10 10 10 10 10 10 10 10 10 10 10 9 9 9 9 9 9 9 9
11 10 11 12 12 12 12 11 12 12 12 12 11 11 12 12 11 12 12 12 12 11 11 10 10 10 10 10 10 10 10 10 9 9 9 9 9 9 9 9 9 9 9 9
10 10 11 11 11 11 11 11 11 11 11 11 10 10 11 12 12 12 12 12 12 11 10 10 10 10 9 9 9 9 9 9 9 9 9 8 8 8 8 8 8 8 8 8
10 10 10 10 10 10 10 11 11 10 9 9 11 9 11 12 11 11 11 11 11 11 10 10 9 9 9 9 9 9 9 9 9 9 8 8 8 8 8 8 8 8 8 8
9 10 9 9 10 10 10 10 10 10 9 8 9 9 10 11 11 11 11 11 11 11 10 9 9 8 8 8 8 8 8 8 8 8 8 8 7 7 7 7 7 7 7 7
9 9 9 9 9 10 10 9 9 9 8 7 9 9 9 10 11 11 10 11 10 10 9 9 8 8 8 8 8 8 8 8 8 8 8 7 7 7 7 7 7 7 7 7
8 9 9 9 8 9 8 8 7 7 7 7 9 9 9 11 10 10 10 10 10 9 9 8 8 7 7 7 8 7 7 7 7 7 7 7 7 6 6 6 6 6 6 6
7 7 8 8 8 7 8 8 7 7 7 8 9 8 9 10 10 10 10 9 9 8 8 7 7 7 7 7 7 7 7 7 7 7 7 7 6 6 6 6 6 6 6 6
7 7 8 8 8 8 8 7 8 7 7 7 8 9 10 9 9 9 9 8 8 7 7 7 6 6 6 6 6 7 7 6 6 7 7 6 6 6 6 6 5 5 5 5
7 5 7 7 7 7 7 7 6 6 6 7 8 9 8 8 8 8 7 7 7 7 6 6 6 6 6 6 6 6 6 6 6 6 6 6 6 6 5 5 5 5 5 5
6 5 5 6 5 6 6 6 6 6 6 6 7 8 9 8 8 7 7 7 7 6 6 5 5 5 5 5 6 6 6 6 6 6 6 5 5 5 5 5 5 5 5 5
6 5 4 5 6 6 6 6 5 5 5 6 6 6 8 8 8 7 7 7 7 6 6 5 5 5 5 5 5 5 5 5 5 5 5 5 5 5 5 5 4 4 4 4
5 4 4 4 5 5 5 5 5 4 4 5 5 6 7 7 7 7 7 7 6 6 5 5 4 4 4 4 4 4 4 4 5 5 5 5 4 4 4 4 4 4 4 4
5 3 3 4 4 4 4 4 4 4 3 4 5 6 6 6 6 6 6 6 6 5 5 4 4 4 4 4 4 4 4 4 4 4 4 4 4 4 4 4 4 4 3 3
3 2 3 3 4 4 4 3 3 3 3 4 4 5 6 6 5 6 6 6 5 5 4 4 3 3 3 3 3 3 3 4 4 4 4 4 3 3 3 3 3 3 3 3
2 2 2 2 3 3 3 3 3 3 3 4 4 4 5 6 6 5 5 5 4 4 4 4 3 3 3 3 3 3 3 3 3 3 3 3 3 3 3 3 3 3 2 2
1 1 2 2 3 3 2 3 3 3 3 3 3 4 5 4 4 4 4 4 4 3 3 3 3 3 3 3 3 3 3 3 2 2 2 2 2 2 2 2 2 2 2 2
1 1 1 1 2 1 3 3 3 3 3 3 3 4 4 4 4 4 4 3 3 3 3 3 3 3 3 3 2 2 2 2 2 2 2 2 2 2 1 1 1 1 1 1
1 1 1 1 1 2 3 3 3 2 2 2 2 3 3 4 3 3 3 3 3 3 3 3 3 3 2 2 2 2 2 2 1 1 1 1 1 1 1 1 1 1 1 0
1 0 0 1 1 2 3 2 3 2 1 2 2 2 3 3 2 2 3 3 2 2 2 2 2 2 2 2 2 2 1 1 1 1 1 1 1 1 1 1 1 0 0 -0
-1 -0 -0 0 1 1 2 2 2 2 2 2 2 2 2 1 1 2 2 2 2 2 2 2 2 2 1 1 1 1 1 1 0 0 0 0 0 0 0 0 0 -0 -0 -1
-1 -1 -0 0 0 1 1 1 1 1 2 2 2 2 2 2 2 1 1 1 1 1 1 1 1 1 1 0 0 0 0 0 -0 -0 -0 -0 -0 -0 -0 -0 -1 -1 -1 -1
-0 -0 -0 0 1 2 2 2 2 2 1 1 1 1 1 1 1 1 1 0 0 0 0 0 0 0 -0 -0 -0 -0 -0 -1 -1 -1 -1 -1 -1 -1 -1 -1 -1 -1 -1 -2
-0 0 -0 -0 0 1 1 1 1 1 1 1 1 0 0 0 0 0 -0 -0 -0 -0 -0 -1 -0 -0 -0 -1 -1 -1 -1 -1 -1 -1 -1 -1 -1 -1 -1 -1 -1 -2 -2 -2
-0 -1 -1 -1 -1 0 1 1 1 0 0 0 0 -0 -0 -0 -0 -0 -1 -1 -1 -1 -1 -1 -1 -1 -1 -1 -1 -1 -1 -1 -1 -1 -1 -2 -2 -2 -2 -2 -2 -2 -2 -2
-1 -1 -1 -1 -0 -1 -0 0 0 0 -0 -0 -0 -1 -1 -1 -1 -1 -1 -1 -1 -1 -1 -1 -1 -1 -1 -1 -1 -2 -2 -2 -2 -2 -2 -2 -2 -2 -2 -2 -3 -3 -3 -3
Wind_Speed
3 3 4 4 6 6 7 8 9 5 2 4 9 11 9 5 5 5 5 5 5 5 5 5 5 4 3 3 3 3 3 3 3 2 2 2 1 1 1 1 1 1 1 1
2 5 4 4 3 5 7 9 8 5 2 4 8 12 10 7 7 7 6 5 5 5 4 5 5 4 4 3 3 3 3 3 3 2 2 2 2 1 1 1 1 1 2 2
4 1 1 3 4 6 8 7 7 6 6 6 7 9 8 7 7 6 6 4 4 6 6 5 5 4 4 3 3 2 3 3 3 3 2 2 1 1 1 1 1 0 1 2
4 2 2 4 5 5 6 3 5 6 5 5 4 6 6 6 7 7 7 5 5 4 4 5 5 4 3 3 3 2 2 3 3 4 4 4 3 2 3 2 2 1 1 1
2 0 3 4 4 5 3 3 5 6 6 7 6 5 6 4 5 7 7 6 5 5 4 5 4 4 3 3 3 2 2 2 3 4 5 4 4 3 2 2 2 2 1 1
4 2 1 3 3 4 2 3 5 4 3 6 7 6 6 3 4 3 4 4 4 4 4 4 3 3 3 2 2 2 3 3 3 4 4 5 5 3 3 2 3 3 2 2
3 5 3 1 2 2 2 1 1 1 3 6 3 4 6 1 2 2 2 3 3 3 4 3 3 3 3 3 3 3 3 3 3 4 4 4 4 4 4 4 4 3 2 2
3 3 4 2 2 2 4 3 2 3 4 3 2 6 3 3 4 3 4 4 4 3 3 2 2 3 3 3 3 4 3 3 2 3 3 3 4 3 3 3 3 3 3 2
2 2 1 0 2 3 3 4 3 3 4 4 5 4 1 4 4 4 4 4 3 2 2 2 2 2 2 2 2 3 3 3 3 2 2 2 3 3 3 3 3 3 3 2
2 3 2 1 2 3 3 2 1 2 3 5 5 4 2 0 1 2 2 2 1 1 1 1 1 1 1 2 1 2 2 3 3 3 3 2 2 3 3 3 3 3 3 3
1 2 2 2 4 3 3 2 3 3 3 3 3 2 2 2 2 2 1 2 2 1 1 1 1 1 1 1 1 1 2 2 2 2 2 2 2 3 3 3 3 3 3 3
2 2 4 4 2 1 2 3 4 3 4 3 3 4 2 5 4 3 1 0 1 1 1 1 1 2 2 1 1 1 1 2 2 2 2 2 2 2 3 3 3 3 3 3
1 1 2 2 1 1 2 4 4 4 3 4 4 5 1 4 3 2 1 1 1 1 0 1 1 1 1 1 1 1 1 1 2 2 2 2 2 2 2 3 3 3 3 3
2 2 4 5 3 2 4 5 5 4 5 6 8 8 7 5 4 3 2 1 0 0 0 0 1 1 1 1 1 1 1 1 1 2 2 2 2 2 2 2 2 2 3 3
1 3 4 7 8 6 7 8 7 8 9 8 9 10 10 7 5 4 4 2 2 1 1 1 1 1 1 1 1 1 1 1 2 2 2 2 2 2 2 2 2 2 2 2
1 3 4 6 7 7 10 10 10 10 10 11 12 13 8 6 5 5 5 4 4 3 2 2 2 2 2 2 1 1 1 2 2 2 2 2 2 2 2 2 2 2 2 2
3 3 3 5 5 5 8 8 9 7 7 7 10 10 7 6 6 5 5 4 4 5 4 3 3 3 2 2 2 2 1 1 1 1 2 2 3 2 2 2 2 2 2 2
4 3 3 4 3 7 6 2 4 7 8 8 8 8 6 6 6 4 3 3 4 4 4 4 3 3 2 1 1 0 1 1 1 1 1 2 2 2 2 2 2 2 2 2
5 5 3 3 4 7 5 3 2 3 7 6 7 8 6 5 5 4 2 3 4 4 4 3 3 2 1 1 0 0 0 1 1 1 1 2 2 2 2 3 3 2 2 2
3 4 4 4 4 5 4 1 1 1 5 4 4 6 6 4 4 5 4 4 4 4 3 3 2 2 1 1 1 0 0 1 1 2 2 2 2 3 3 3 2 1 1 2
3 4 7 8 6 6 4 2 1 2 5 3 3 4 4 3 4 4 4 4 4 4 3 3 2 2 1 1 1 0 0 1 2 1 1 1 2 2 2 2 1 2 2 2
5 5 6 5 7 7 2 2 4 5 3 4 5 4 4 4 4 3 3 3 4 4 4 3 2 3 2 1 0 1 1 2 2 1 1 1 2 2 2 2 2 2 2 2
5 5 4 6 6 3 2 3 3 2 4 4 4 5 5 5 4 3 3 3 4 3 3 2 2 2 2 1 0 1 2 1 2 1 1 1 1 1 2 2 3 2 2 2
4 3 4 5 6 5 3 4 4 4 5 5 5 5 4 5 5 4 3 3 3 3 3 2 2 2 3 3 2 2 2 1 1 2 2 2 2 2 2 2 2 2 2 3
5 3 4 7 7 6 4 4 5 5 6 6 5 4 4 5 5 4 3 3 3 3 3 2 2 3 4 3 3 2 2 1 2 2 2 2 2 2 2 1 2 2 3 4
6 6 6 7 5 4 5 4 4 5 6 6 6 6 4 4 4 4 4 3 3 3 3 3 3 3 4 3 3 3 2 1 2 3 2 2 2 2 2 2 1 2 3 4
Wind_Direction
197 226 225 230 237 273 303 291 285 299 339 267 260 268 265 241 234 233 226 214 195 189 171 145 137 137 140 134 130 142 137 145 139 145 158 159 166 161 146 109 109 125 101 98
215 236 260 283 283 281 280 282 284 297 335 294 277 274 266 232 228 227 221 208 188 177 164 152 150 153 157 156 146 145 154 155 153 160 170 172 169 170 170 109 107 143 144 142
235 354 322 280 269 265 261 261 278 292 302 266 276 282 245 234 222 213 210 203 190 181 173 163 163 162 159 163 164 162 169 159 160 159 145 137 125 146 161 195 206 172 146 147
254 254 290 257 256 263 267 292 288 285 290 275 241 285 265 215 213 209 207 200 198 178 166 165 163 165 168 167 156 163 167 168 171 166 162 163 181 193 203 196 197 189 160 138
255 222 257 261 272 282 286 321 288 276 266 277 251 252 273 208 224 219 204 191 185 173 170 166 162 165 162 151 156 174 171 178 178 180 178 181 197 198 180 175 179 190 176 147
256 270 288 291 301 285 294 290 272 259 256 259 234 226 272 214 235 226 186 169 162 149 133 132 135 140 142 139 152 174 177 188 185 183 182 186 193 191 182 192 198 195 189 181
242 220 190 267 273 236 267 264 291 254 227 244 236 228 251 161 60 61 121 126 118 109 119 126 129 142 154 163 176 180 180 188 185 182 182 183 185 191 195 199 202 193 187 190
254 242 187 201 235 225 224 226 218 239 249 272 236 230 247 103 85 69 82 96 100 102 112 134 151 160 167 176 184 178 179 184 182 177 183 187 187 193 207 199 192 197 199 195
290 277 53 321 292 269 221 230 262 286 291 279 240 240 221 104 94 96 94 92 105 114 119 123 133 140 151 167 187 177 174 180 183 179 175 181 188 190 192 189 186 196 192 181
291 280 254 217 247 258 278 290 196 216 250 261 252 240 258 104 119 116 112 125 134 120 119 121 134 136 146 150 157 153 164 175 178 172 179 186 193 191 182 183 185 188 188 174
271 247 262 222 209 218 211 238 236 233 245 252 270 273 356 52 75 119 159 173 174 156 151 159 167 157 135 126 132 155 161 163 177 176 171 176 193 193 185 184 190 186 180 173
267 255 258 243 237 243 217 228 210 221 251 245 261 267 8 49 55 59 61 57 126 154 165 153 154 147 140 142 167 207 186 183 194 184 178 189 191 185 183 189 191 179 179 180
321 237 275 273 230 217 263 256 245 249 263 252 246 257 339 20 22 39 40 30 47 69 88 102 130 154 164 172 190 212 210 204 194 177 179 184 182 185 188 190 183 178 178 179
306 236 231 245 269 258 258 259 251 238 239 250 245 263 288 310 321 336 343 343 35 236 239 264 235 200 187 198 200 203 210 188 183 173 179 189 191 194 195 188 183 184 180 180
267 248 252 270 285 283 272 262 246 236 238 243 257 264 272 289 295 308 319 325 336 327 316 282 249 249 238 228 225 205 209 189 187 177 184 196 186 182 184 189 186 183 187 193
261 252 274 270 266 270 274 264 251 250 252 254 265 271 276 291 308 315 314 319 324 312 290 276 259 252 244 238 239 231 211 204 187 183 193 188 177 177 182 188 191 187 195 194
220 234 262 264 268 288 269 249 236 237 237 244 255 268 294 302 306 299 303 311 315 319 317 302 281 266 257 252 243 227 219 208 187 186 183 176 178 182 188 192 192 200 205 198
216 235 251 271 283 250 250 263 231 232 251 249 258 272 281 285 295 301 315 318 314 315 317 303 296 294 290 280 283 224 146 171 187 185 189 184 173 175 181 189 200 207 207 198
213 206 236 242 254 267 265 265 221 232 270 263 262 276 284 296 304 289 312 318 306 304 297 291 288 285 295 311 352 80 137 163 180 204 217 215 190 180 184 201 206 201 189 201
219 204 224 237 246 253 261 271 263 217 267 277 270 283 286 298 290 284 333 338 325 323 319 313 314 329 343 338 34 104 174 182 217 226 231 222 202 192 200 207 207 192 187 203
196 208 223 235 244 260 266 240 146 207 258 315 311 296 294 270 264 286 325 337 337 338 338 343 351 347 331 8 53 46 280 270 266 240 235 221 206 204 204 197 197 183 191 186
195 202 214 219 233 251 218 169 205 242 293 311 312 306 295 286 290 304 323 329 334 337 341 350 349 334 338 18 64 299 287 299 319 286 234 233 220 215 196 182 197 190 185 185
210 215 216 215 229 253 191 232 265 302 300 303 306 308 299 291 289 298 306 314 317 322 324 328 322 324 329 333 293 267 288 316 319 282 251 245 234 226 199 191 198 195 189 191
242 237 245 262 264 274 271 288 305 305 296 300 301 299 295 289 287 292 297 303 314 319 319 322 323 319 312 312 302 272 284 295 293 266 259 250 233 228 217 204 195 194 194 201
252 233 252 262 272 287 277 287 298 302 301 300 299 295 287 289 286 285 292 297 299 301 304 306 294 292 293 301 302 303 295 276 279 271 260 248 237 227 218 208 212 211 210 207
238 229 235 253 263 260 278 299 297 292 294 294 293 293 288 278 280 286 283 281 287 294 297 300 298 295 295 301 301 302 301 270 264 267 258 247 233 223 208 203 241 250 236 230
Height
1481 1484 1484 1482 1481 1480 1479 1479 1477 1474 1474 1477 1477 1474 1471 1471 1471 1472 1473 1474 1475 1476 1479 1480 1481 1483 1484 1485 1486 1487 1488 1490 1491 1492 1493 1494 1495 1497 1498 1499 1500 1501 1502 1503
1482 1483 1481 1479 1479 1480 1481 1481 1479 1477 1475 1477 1476 1472 1467 1466 1467 1468 1469 1470 1472 1474 1476 1477 1479 1480 1481 1482 1483 1484 1485 1487 1488 1489 1490 1492 1493 1494 1495 1496 1497 1498 1499 1500
1481 1481 1479 1480 1480 1481 1480 1482 1480 1479 1477 1476 1477 1472 1464 1461 1462 1464 1466 1467 1469 1471 1473 1474 1476 1477 1479 1480 1481 1482 1483 1484 1486 1487 1488 1489 1491 1492 1492 1493 1494 1495 1496 1497
1480 1480 1480 1480 1481 1480 1481 1479 1479 1479 1483 1482 1477 1482 1463 1458 1460 1461 1462 1464 1466 1468 1470 1471 1473 1474 1476 1477 1478 1479 1480 1481 1482 1484 1485 1486 1487 1487 1488 1490 1491 1492 1493 1494
1480 1479 1481 1481 1481 1481 1480 1479 1479 1479 1482 1484 1477 1480 1467 1458 1459 1458 1459 1461 1464 1466 1468 1469 1470 1472 1473 1474 1475 1476 1477 1478 1479 1480 1481 1483 1484 1485 1486 1487 1488 1489 1490 1491
1480 1480 1481 1481 1480 1480 1480 1480 1480 1479 1483 1488 1474 1477 1469 1460 1456 1455 1456 1458 1461 1463 1465 1466 1468 1469 1470 1471 1472 1473 1474 1475 1476 1477 1478 1479 1481 1483 1483 1484 1485 1486 1487 1488
1480 1479 1480 1481 1481 1481 1482 1486 1490 1489 1490 1483 1468 1470 1465 1454 1453 1454 1455 1457 1459 1461 1463 1464 1465 1467 1468 1469 1470 1470 1471 1472 1473 1474 1475 1476 1478 1479 1480 1481 1482 1483 1483 1484
1483 1482 1479 1480 1481 1482 1482 1483 1489 1490 1483 1475 1469 1470 1460 1453 1453 1453 1454 1456 1459 1461 1462 1463 1464 1465 1465 1466 1467 1468 1469 1469 1470 1471 1472 1473 1474 1476 1477 1478 1479 1480 1481 1482
1484 1483 1479 1479 1479 1480 1480 1482 1479 1484 1482 1482 1470 1459 1454 1453 1454 1455 1456 1457 1459 1460 1461 1461 1462 1463 1463 1464 1465 1466 1466 1467 1468 1469 1469 1470 1471 1472 1474 1475 1476 1477 1478 1479
1483 1487 1481 1480 1480 1480 1480 1479 1483 1486 1486 1479 1466 1460 1461 1456 1456 1456 1457 1457 1458 1460 1460 1460 1460 1461 1461 1462 1463 1463 1464 1465 1465 1466 1467 1467 1468 1469 1470 1471 1472 1473 1475 1476
1483 1487 1484 1481 1481 1480 1482 1482 1481 1482 1480 1480 1473 1468 1456 1455 1455 1456 1457 1457 1458 1459 1459 1459 1459 1459 1459 1460 1460 1461 1461 1462 1462 1463 1464 1464 1465 1466 1467 1468 1469 1470 1471 1472
1483 1485 1486 1481 1477 1477 1478 1479 1482 1485 1482 1477 1476 1472 1456 1456 1455 1456 1457 1457 1457 1457 1457 1457 1457 1457 1457 1457 1458 1459 1459 1459 1460 1460 1461 1462 1462 1463 1464 1465 1466 1467 1468 1469
1485 1487 1489 1482 1483 1481 1480 1478 1479 1482 1481 1478 1476 1471 1457 1457 1456 1456 1457 1457 1456 1457 1456 1456 1456 1455 1455 1455 1456 1456 1457 1457 1457 1458 1458 1459 1459 1460 1461 1462 1462 1463 1464 1466
1484 1487 1488 1485 1480 1481 1481 1480 1479 1481 1483 1477 1471 1465 1459 1458 1457 1457 1457 1456 1456 1455 1455 1454 1454 1453 1453 1453 1453 1454 1454 1454 1455 1455 1455 1456 1456 1457 1458 1458 1459 1460 1461 1462
1485 1487 1485 1482 1479 1478 1477 1477 1477 1478 1476 1474 1467 1464 1459 1458 1457 1456 1456 1455 1454 1454 1453 1453 1452 1452 1451 1451 1451 1451 1451 1451 1452 1452 1452 1453 1453 1454 1454 1455 1456 1456 1457 1458
1485 1486 1485 1483 1478 1477 1475 1472 1472 1472 1470 1468 1464 1461 1457 1456 1455 1455 1454 1454 1453 1452 1451 1450 1450 1449 1448 1448 1448 1448 1448 1448 1448 1448 1449 1449 1450 1450 1451 1451 1452 1453 1454 1454
1485 1486 1485 1481 1476 1475 1474 1467 1467 1465 1464 1464 1463 1459 1455 1455 1454 1453 1453 1452 1451 1450 1449 1448 1447 1446 1446 1445 1445 1445 1445 1445 1445 1445 1445 1446 1447 1447 1448 1448 1448 1449 1450 1451
1483 1484 1484 1481 1479 1482 1465 1459 1458 1460 1459 1458 1456 1454 1454 1453 1452 1452 1451 1450 1449 1448 1447 1446 1445 1444 1443 1443 1443 1443 1442 1442 1442 1442 1443 1443 1444 1444 1445 1445 1445 1446 1446 1447
1478 1481 1482 1481 1478 1467 1461 1458 1458 1459 1457 1455 1454 1452 1451 1451 1450 1449 1448 1448 1447 1446 1444 1443 1442 1441 1440 1440 1440 1440 1439 1439 1439 1439 1440 1440 1441 1441 1441 1442 1442 1442 1443 1444
1475 1477 1481 1478 1476 1470 1459 1457 1455 1458 1458 1453 1451 1450 1450 1450 1451 1448 1446 1445 1444 1443 1441 1440 1439 1438 1437 1437 1437 1436 1436 1436 1436 1437 1437 1437 1438 1438 1438 1439 1439 1439 1440 1440
1478 1477 1477 1474 1472 1464 1457 1455 1455 1461 1457 1451 1449 1448 1448 1448 1448 1446 1444 1442 1441 1440 1438 1437 1436 1435 1435 1434 1434 1433 1433 1433 1434 1434 1434 1434 1435 1435 1435 1435 1436 1436 1437 1437
1473 1473 1472 1470 1470 1465 1455 1454 1456 1454 1450 1449 1447 1447 1446 1445 1444 1442 1441 1440 1439 1437 1436 1435 1433 1433 1432 1432 1431 1431 1430 1431 1431 1431 1431 1431 1432 1432 1432 1432 1433 1433 1434 1434
1465 1464 1462 1462 1459 1452 1451 1451 1450 1449 1448 1447 1445 1444 1443 1442 1441 1439 1438 1437 1436 1435 1434 1433 1431 1430 1430 1429 1429 1428 1428 1428 1428 1428 1428 1428 1428 1429 1429 1429 1430 1430 1431 1431
1459 1457 1458 1456 1451 1449 1448 1448 1447 1447 1446 1444 1443 1442 1441 1439 1438 1436 1435 1434 1433 1433 1432 1431 1429 1428 1427 1427 1426 1426 1425 1425 1425 1424 1424 1425 1425 1425 1425 1426 1426 1427 1427 1427
1456 1456 1456 1453 1449 1447 1445 1445 1445 1444 1442 1441 1440 1438 1437 1436 1435 1434 1433 1432 1431 1430 1429 1428 1427 1426 1425 1424 1423 1423 1422 1422 1421 1421 1421 1421 1421 1422 1422 1422 1423 1423 1424 1425
1451 1452 1453 1449 1446 1446 1443 1442 1442 1440 1439 1438 1436 1435 1434 1433 1432 1431 1430 1429 1428 1427 1426 1425 1424 1423 1422 1421 1420 1420 1420 1419 1418 1418 1418 1418 1418 1418 1418 1419 1419 1420 1421 1421